EHI
60 62 64 64 62 59 55 50 44 37 30 24 20 16 11 10 11 8 6 5 2 2 2 1 1 0 0 0 0 0 0 0 0 0 0 0 0 0 0 0 0 0 0
64 64 65 64 62 60 55 47 39 33 28 24 19 14 9 9 10 8 6 6 4 3 2 1 1 0 0 0 0 0 0 0 0 0 0 0 0 0 0 0 0 0 0
67 66 65 63 61 57 50 42 35 29 26 22 17 12 7 6 8 8 7 6 5 4 3 1 1 0 0 0 0 0 0 0 0 0 0 0 0 0 0 0 0 0 0
65 62 59 58 56 50 42 36 31 27 24 21 18 12 6 4 6 7 7 5 3 2 2 1 0 0 0 0 0 0 0 0 0 0 0 0 0 0 0 0 0 0 0
56 51 47 47 47 44 38 33 28 24 22 20 18 12 6 4 5 5 4 3 1 0 1 1 0 0 0 0 0 0 0 0 0 0 0 0 0 0 0 0 0 0 0
48 42 35 36 39 38 34 29 25 21 18 17 16 12 7 4 4 3 3 3 2 1 0 0 0 0 0 0 0 0 0 0 0 0 0 0 0 0 0 0 0 0 0
42 36 31 30 32 32 29 25 21 19 16 14 14 12 9 5 3 3 3 3 3 2 1 1 1 1 0 0 0 0 0 0 0 0 0 0 0 0 0 0 0 0 0
35 30 28 28 27 26 24 19 17 17 16 14 13 12 10 7 4 3 3 3 3 3 2 1 2 1 0 0 0 0 0 0 0 0 0 0 0 0 0 0 0 0 0
29 26 25 24 21 20 19 17 15 16 17 16 14 12 10 9 5 3 3 3 3 3 2 1 1 1 0 0 0 0 0 0 0 0 0 0 0 0 0 0 0 0 0
31 28 24 21 18 16 15 14 14 14 15 15 14 12 11 9 6 3 2 2 1 1 1 1 0 1 1 0 0 0 0 0 0 0 0 0 0 0 0 0 0 0 0
36 31 24 19 18 15 12 10 10 11 12 13 14 13 11 8 5 3 2 1 0 0 0 0 0 1 1 0 0 0 0 0 0 0 0 0 0 0 0 0 0 0 0
36 30 24 19 15 12 10 8 8 9 10 12 13 13 11 8 6 6 5 3 2 0 0 0 0 1 1 0 0 0 0 0 0 0 0 0 0 0 0 0 0 0 0
33 28 23 18 11 8 8 8 10 10 11 12 13 13 11 10 9 9 8 6 4 2 1 0 0 0 0 0 0 0 0 0 0 0 0 0 0 0 0 0 0 0 0
34 28 22 16 10 7 9 11 11 11 11 11 11 11 11 11 10 9 8 7 5 4 3 2 1 0 0 0 0 0 0 0 0 0 0 0 0 0 0 0 0 0 0
36 33 26 19 14 11 12 13 12 11 11 11 11 9 9 10 9 8 6 5 5 5 5 5 3 1 0 0 0 0 0 0 0 0 0 0 0 0 0 0 0 0 0
38 39 35 28 22 19 16 15 14 12 13 14 13 10 10 9 8 6 5 4 4 5 6 6 5 3 1 0 0 1 1 1 0 0 0 0 0 0 0 0 0 0 0
42 43 40 34 29 26 20 17 15 15 15 16 15 14 13 11 8 7 6 4 4 4 5 6 6 5 3 1 0 1 2 1 0 0 0 0 0 0 0 0 0 0 0
45 43 38 35 33 29 22 18 16 15 15 16 15 15 13 10 8 8 7 6 4 4 5 5 6 5 3 1 0 0 1 1 0 0 0 0 0 0 0 0 0 0 0
42 38 33 30 29 25 22 19 16 15 14 14 12 11 10 8 6 6 6 6 5 4 4 4 4 3 3 1 0 0 0 0 0 0 0 0 0 0 0 0 0 0 0
34 31 27 23 19 17 17 16 14 13 12 11 9 7 6 5 4 3 3 4 4 3 2 2 3 2 2 1 0 0 0 0 0 0 0 0 0 0 0 0 0 0 0
25 25 23 19 14 10 9 8 7 6 6 6 5 4 3 2 1 1 1 2 2 2 1 1 2 2 1 1 0 0 0 0 0 0 0 0 0 0 0 0 0 0 0
17 19 19 17 12 8 5 3 2 1 2 2 1 1 1 1 0 0 0 1 1 1 0 0 1 1 0 0 0 0 0 0 0 0 0 0 0 0 0 0 0 0 0
14 14 15 13 9 7 4 3 2 1 1 1 0 0 0 0 0 0 0 0 0 0 0 0 0 0 0 0 0 0 0 0 0 0 0 0 0 0 0 0 0 0 0
11 11 11 9 8 6 4 3 3 3 2 2 1 1 0 0 0 0 0 0 0 0 0 0 0 0 0 0 0 0 0 0 0 0 0 0 0 0 0 0 0 0 0
7 8 8 7 6 5 4 3 3 3 3 4 3 2 1 0 0 0 0 0 0 0 0 0 0 0 0 0 0 0 0 0 0 0 0 0 0 0 0 0 0 0 0
4 5 6 5 5 5 4 3 3 3 4 4 2 2 1 1 0 0 0 0 0 0 0 0 0 0 0 0 0 0 0 0 0 0 0 0 0 0 0 0 0 0 0
Wind_Speed
8 8 8 9 9 8 9 9 9 8 6 4 4 4 3 3 3 3 5 6 6 6 5 4 4 4 4 4 4 3 2 1 2 2 2 2 1 2 3 3 4 5 6
8 8 8 9 9 9 8 8 8 8 8 5 4 3 4 3 3 3 4 5 6 6 6 5 4 4 4 4 4 3 2 1 2 3 2 1 3 2 2 2 4 5 4
13 11 10 8 8 9 9 9 9 8 7 6 4 3 3 2 2 2 3 5 6 6 5 6 4 4 4 4 4 4 4 2 1 2 4 3 3 2 2 2 2 3 3
10 9 9 8 8 8 7 7 8 8 7 7 6 7 6 5 5 4 4 4 5 6 6 6 5 5 4 4 4 4 3 4 2 1 1 2 4 3 1 2 1 2 3
11 10 9 8 7 7 7 7 7 7 7 7 8 8 5 4 3 4 5 4 4 5 6 6 5 5 4 4 4 4 4 3 3 2 1 1 1 2 3 1 1 1 1
10 8 7 7 6 6 6 7 7 6 6 7 8 8 7 6 6 5 5 4 3 3 5 5 5 5 4 4 4 4 5 3 3 3 2 3 2 3 3 3 2 1 1
10 10 9 8 7 7 7 6 7 6 6 7 7 7 7 7 7 6 6 5 4 3 5 5 5 4 4 5 4 4 4 4 4 3 2 2 2 3 3 3 2 1 0
9 9 10 9 8 8 7 7 7 6 6 6 6 6 6 5 4 5 5 5 4 5 5 5 5 5 5 5 4 3 3 3 4 4 3 2 2 2 3 4 4 2 1
8 8 8 8 8 8 7 7 7 5 6 6 6 5 6 6 5 5 4 4 4 4 5 6 6 5 5 5 5 3 4 4 3 3 3 2 1 1 2 3 4 5 3
7 7 7 7 7 6 5 5 6 6 5 6 5 5 5 5 5 4 5 5 5 5 5 5 6 5 5 5 5 3 3 4 3 2 3 2 1 1 1 2 2 3 5
9 8 7 6 7 6 6 5 5 4 4 5 5 5 4 4 4 4 4 4 4 4 5 5 5 5 5 5 5 4 4 4 3 2 3 3 3 3 2 2 3 2 4
9 8 7 6 6 6 6 6 5 5 5 5 5 5 5 4 4 3 3 3 3 4 4 5 5 6 6 5 6 5 4 4 4 3 4 3 3 4 3 3 3 3 3
9 7 7 7 7 7 6 5 5 6 5 5 5 5 4 4 4 3 3 3 3 3 4 4 5 5 5 5 5 5 4 4 4 3 4 4 5 5 3 4 4 3 4
8 8 7 8 7 7 6 6 5 5 5 5 5 5 4 4 4 3 3 3 3 3 3 4 5 5 5 5 5 5 5 5 5 4 4 4 5 5 5 4 4 5 6
10 10 9 8 8 7 6 6 6 5 6 6 5 5 4 4 3 3 3 3 3 3 4 4 4 4 5 5 7 6 7 7 7 5 5 5 8 8 6 5 4 6 6
12 11 10 9 9 8 8 7 6 6 6 6 5 5 4 4 4 3 3 3 3 3 4 4 4 4 4 8 10 9 8 8 8 7 6 7 9 13 14 13 11 8 7
11 11 10 10 9 8 8 7 6 6 6 6 5 5 5 5 4 4 4 4 4 4 4 4 4 5 6 10 11 12 9 7 7 7 7 7 7 9 9 13 15 13 13
10 9 8 7 6 6 6 6 6 6 6 6 5 6 6 5 5 5 4 4 4 4 4 5 5 6 7 11 12 12 9 8 7 6 6 7 6 7 8 10 9 8 7
8 8 8 7 6 7 7 7 6 5 6 6 6 6 6 6 6 5 5 4 5 5 4 5 6 7 7 10 12 11 8 8 7 6 6 7 7 10 11 10 9 8 7
7 8 8 7 7 6 6 7 6 5 5 5 5 5 6 7 7 6 5 4 5 5 5 6 6 7 7 9 11 11 8 8 7 6 6 8 9 10 10 8 9 8 5
8 7 8 7 5 5 7 7 5 4 4 5 5 5 5 6 6 6 5 6 6 6 6 7 5 5 7 8 10 10 7 8 7 6 4 5 11 11 10 8 6 7 6
8 7 8 6 4 5 6 6 4 3 4 5 6 5 5 5 6 6 6 6 6 7 7 7 6 5 5 6 8 10 10 9 8 7 5 6 11 11 10 7 8 10 8
7 7 8 7 5 4 5 5 3 4 6 6 5 5 5 5 6 6 6 6 5 5 5 5 6 5 4 6 10 11 12 12 7 6 9 10 12 10 8 9 10 8 5
7 6 7 7 4 3 4 3 3 5 6 6 5 5 5 5 5 4 4 5 5 5 6 6 6 6 5 4 5 6 7 11 9 7 9 11 10 7 7 6 5 4 4
6 6 6 5 4 3 4 3 3 5 6 6 5 5 5 5 5 5 3 3 2 4 6 6 6 8 6 5 8 7 6 6 7 7 5 4 4 3 3 3 4 3 4
6 6 6 5 4 3 3 3 3 4 6 5 5 4 5 5 6 6 6 10 7 8 8 8 7 5 8 12 11 11 11 11 11 7 5 4 4 3 3 4 3 2 3
Wind_Direction
170 161 153 153 150 153 156 158 156 160 154 153 156 155 161 164 166 181 176 169 170 165 159 163 163 157 159 171 163 141 140 142 131 91 36 360 337 209 210 192 183 195 199
161 160 158 158 161 164 164 161 163 165 168 168 164 161 154 170 172 181 180 179 175 171 169 160 165 166 158 158 157 144 137 157 146 133 108 17 343 317 237 203 196 200 190
167 167 165 167 166 171 174 171 169 173 176 167 148 136 121 118 144 174 181 186 180 179 171 166 163 165 162 168 172 161 150 162 184 156 145 151 213 281 315 251 209 190 185
164 165 168 173 176 179 174 167 168 173 177 171 167 164 170 177 183 178 181 182 182 182 173 171 168 167 166 171 180 169 156 148 170 191 182 170 160 156 247 322 279 189 190
169 172 176 176 172 170 169 167 168 175 180 179 177 173 179 181 165 162 173 181 190 191 177 173 168 165 168 175 174 162 161 158 165 172 167 156 142 139 143 202 282 322 243
167 168 167 164 167 165 167 169 171 180 181 179 176 176 179 175 167 173 179 184 191 194 184 174 172 170 170 174 177 171 167 166 158 159 159 163 164 181 160 170 201 209 278
164 166 166 173 172 170 171 173 175 181 180 179 180 180 179 178 182 183 184 183 188 194 197 183 174 176 182 181 173 166 172 169 163 169 173 175 191 175 160 151 167 168 284
167 170 173 174 173 172 172 176 179 182 182 179 182 177 174 176 186 187 183 187 194 198 193 186 182 181 182 183 174 168 176 169 173 180 173 169 199 177 167 162 152 133 56
166 171 169 172 167 166 171 173 175 179 181 180 173 171 174 180 188 187 185 191 196 198 189 186 185 188 183 176 165 166 176 165 171 174 169 169 192 160 160 156 154 149 152
158 168 170 169 162 161 163 164 164 173 172 167 172 173 177 181 180 180 189 192 197 193 179 183 186 187 180 168 155 153 160 153 162 159 151 154 143 102 109 135 138 144 144
161 166 170 162 153 147 149 157 158 154 156 165 168 163 165 166 168 178 187 186 188 181 177 177 178 176 171 164 151 152 151 152 151 148 142 139 127 112 98 97 102 113 121
163 160 154 150 147 153 156 161 164 161 167 167 163 162 162 164 167 177 184 179 177 177 173 170 172 175 167 160 152 154 153 148 148 147 129 124 115 100 97 99 99 105 114
159 154 152 156 160 162 163 166 170 169 167 160 159 158 161 164 168 175 173 169 170 169 167 162 165 165 159 154 152 151 146 137 133 132 128 127 118 105 97 94 98 101 102
158 157 159 161 165 168 165 165 169 168 162 155 156 162 170 171 175 172 166 165 161 161 166 161 157 154 149 146 143 137 128 115 102 100 106 110 117 119 113 103 104 106 103
164 164 166 166 166 163 165 164 166 163 158 154 160 170 166 155 146 139 137 131 133 144 143 137 137 139 142 145 142 136 128 118 106 95 91 96 104 106 106 109 110 112 109
169 167 165 165 166 167 165 164 164 163 156 156 162 157 145 140 137 136 130 124 123 120 116 122 128 130 137 138 139 135 129 126 123 114 97 89 87 90 87 89 92 104 118
164 164 166 169 168 168 164 164 163 157 152 153 152 146 143 139 139 136 126 126 123 115 113 114 118 120 126 129 129 130 127 125 125 124 120 109 98 91 92 84 79 76 84
155 159 157 151 149 149 149 150 145 146 148 147 148 147 143 141 137 131 129 124 116 115 118 119 119 118 119 121 121 118 112 108 108 111 116 116 113 107 106 99 86 75 69
143 140 136 135 133 135 138 134 136 140 142 147 151 152 148 144 139 134 128 123 117 112 111 113 115 116 115 118 121 117 111 105 98 97 102 113 113 115 110 106 101 89 76
119 121 119 113 116 124 124 123 131 136 146 154 153 149 149 149 148 142 134 123 118 115 109 103 110 118 122 122 121 121 118 114 106 94 94 106 114 119 114 111 111 107 103
109 113 112 112 118 123 120 123 129 140 146 137 131 129 132 136 135 129 126 122 117 112 107 105 101 109 119 118 119 124 126 128 122 115 106 103 110 110 111 112 116 129 128
107 111 109 104 107 117 123 125 135 141 131 126 125 124 125 128 127 123 119 120 124 120 115 107 97 87 95 109 116 119 122 126 125 124 120 114 112 107 104 101 111 115 111
114 111 114 112 99 101 117 128 133 131 129 124 125 125 122 121 127 130 130 126 125 128 126 123 119 109 93 97 108 115 117 116 111 115 119 114 107 98 90 92 99 102 104
110 112 112 111 108 104 102 110 124 131 133 132 131 129 131 126 121 123 133 138 141 142 139 139 135 128 120 120 119 118 114 110 108 110 111 103 95 88 90 87 85 88 107
103 107 112 117 118 110 101 99 113 128 131 133 134 132 131 131 121 102 83 118 128 156 151 152 149 148 149 154 145 138 132 133 131 124 107 97 95 90 85 82 85 90 97
107 107 108 111 116 116 116 114 124 135 138 139 141 140 135 132 128 120 89 55 70 92 106 119 130 121 129 135 131 127 125 128 134 123 125 127 125 128 128 121 109 100 107